Time,TemperatureF,DewpointF,PressureIn,WindDirection,WindDirectionDegrees,WindSpeedMPH,WindSpeedGustMPH,Humidity,HourlyPrecipIn,Conditions,Clouds,dailyrainin,SoftwareType,DateUTC
2013-07-04 00:04:00,65.0,56.5,30.11,South,180,0.0,1.0,74,0.00,,,0.00,Weather View 32 v70,2013-07-04 04:04:00,
2013-07-04 00:09:00,65.0,56.5,30.11,South,180,0.0,1.0,74,0.00,,,0.00,Weather View 32 v70,2013-07-04 04:09:00,
2013-07-04 00:15:00,65.0,56.1,30.11,South,180,0.0,1.0,73,0.00,,,0.00,Weather View 32 v70,2013-07-04 04:15:00,
2013-07-04 00:20:00,65.0,55.7,30.11,South,180,0.0,1.0,72,0.00,,,0.00,Weather View 32 v70,2013-07-04 04:20:00,
2013-07-04 00:29:00,65.0,55.7,30.11,South,180,0.0,1.0,72,0.00,,,0.00,Weather View 32 v70,2013-07-04 04:29:00,
2013-07-04 00:34:00,65.0,55.7,30.11,South,180,0.0,1.0,72,0.00,,,0.00,Weather View 32 v70,2013-07-04 04:34:00,
2013-07-04 00:39:00,65.0,55.7,30.11,South,180,0.0,1.0,72,0.00,,,0.00,Weather View 32 v70,2013-07-04 04:39:00,
2013-07-04 00:44:00,65.0,55.7,30.11,South,180,0.0,1.0,72,0.00,,,0.00,Weather View 32 v70,2013-07-04 04:44:00,
2013-07-04 00:49:00,65.0,55.7,30.11,South,180,0.0,1.0,72,0.00,,,0.00,Weather View 32 v70,2013-07-04 04:49:00,
2013-07-04 00:54:00,65.0,56.5,30.11,South,180,0.0,1.0,74,0.00,,,0.00,Weather View 32 v70,2013-07-04 04:54:00,
2013-07-04 01:04:00,65.0,54.9,30.10,South,180,0.0,0.0,70,0.00,,,0.00,Weather View 32 v70,2013-07-04 05:04:00,
2013-07-04 01:09:00,65.0,54.9,30.11,South,180,0.0,0.0,70,0.00,,,0.00,Weather View 32 v70,2013-07-04 05:09:00,
2013-07-04 01:14:00,65.0,54.9,30.11,South,180,0.0,0.0,70,0.00,,,0.00,Weather View 32 v70,2013-07-04 05:14:00,
2013-07-04 01:21:00,65.0,54.9,30.11,South,180,0.0,0.0,70,0.00,,,0.00,Weather View 32 v70,2013-07-04 05:21:00,
2013-07-04 01:29:00,64.0,54.0,30.11,South,180,0.0,0.0,70,0.00,,,0.00,Weather View 32 v70,2013-07-04 05:29:00,
2013-07-04 01:34:00,64.0,54.0,30.11,South,180,0.0,0.0,70,0.00,,,0.00,Weather View 32 v70,2013-07-04 05:34:00,
2013-07-04 01:44:00,64.0,54.0,30.10,South,180,0.0,0.0,70,0.00,,,0.00,Weather View 32 v70,2013-07-04 05:44:00,
2013-07-04 01:49:00,64.0,54.0,30.10,South,180,0.0,0.0,70,0.00,,,0.00,Weather View 32 v70,2013-07-04 05:49:00,
2013-07-04 01:54:00,64.0,54.4,30.10,South,180,0.0,0.0,71,0.00,,,0.00,Weather View 32 v70,2013-07-04 05:54:00,
2013-07-04 01:59:00,64.0,54.4,30.10,South,180,0.0,0.0,71,0.00,,,0.00,Weather View 32 v70,2013-07-04 05:59:00,
2013-07-04 02:09:00,64.0,54.0,30.10,South,180,0.0,0.0,70,0.00,,,0.00,Weather View 32 v70,2013-07-04 06:09:00,
2013-07-04 02:14:00,64.0,54.0,30.10,South,180,0.0,2.0,70,0.00,,,0.00,Weather View 32 v70,2013-07-04 06:14:00,
2013-07-04 02:21:00,64.0,54.0,30.10,South,180,0.0,2.0,70,0.00,,,0.00,Weather View 32 v70,2013-07-04 06:21:00,
2013-07-04 02:29:00,64.0,54.8,30.10,South,180,0.0,2.0,72,0.00,,,0.00,Weather View 32 v70,2013-07-04 06:29:00,
2013-07-04 02:34:00,64.0,54.8,30.10,South,180,0.0,2.0,72,0.00,,,0.00,Weather View 32 v70,2013-07-04 06:34:00,
2013-07-04 02:39:00,63.0,53.8,30.10,South,180,0.0,2.0,72,0.00,,,0.00,Weather View 32 v70,2013-07-04 06:39:00,
2013-07-04 02:49:00,63.0,53.4,30.10,South,180,0.0,2.0,71,0.00,,,0.00,Weather View 32 v70,2013-07-04 06:49:00,
2013-07-04 02:54:00,63.0,53.8,30.10,South,180,0.0,2.0,72,0.00,,,0.00,Weather View 32 v70,2013-07-04 06:54:00,
2013-07-04 02:59:00,63.0,54.9,30.10,South,180,0.0,2.0,75,0.00,,,0.00,Weather View 32 v70,2013-07-04 06:59:00,
2013-07-04 03:04:00,64.0,57.7,30.09,South,180,0.0,2.0,80,0.00,,,0.00,Weather View 32 v70,2013-07-04 07:04:00,
2013-07-04 03:14:00,64.0,55.9,30.10,South,180,0.0,1.0,75,0.00,,,0.00,Weather View 32 v70,2013-07-04 07:14:00,
2013-07-04 03:19:00,64.0,54.4,30.10,South,180,0.0,1.0,71,0.00,,,0.00,Weather View 32 v70,2013-07-04 07:19:00,
2013-07-04 03:24:00,63.0,53.8,30.10,South,180,0.0,1.0,72,0.00,,,0.00,Weather View 32 v70,2013-07-04 07:24:00,
2013-07-04 03:34:00,63.0,53.8,30.10,South,180,0.0,1.0,72,0.00,,,0.00,Weather View 32 v70,2013-07-04 07:34:00,
2013-07-04 03:39:00,63.0,53.4,30.10,South,180,0.0,2.0,71,0.00,,,0.00,Weather View 32 v70,2013-07-04 07:39:00,
2013-07-04 03:49:00,63.0,54.6,30.10,South,180,0.0,2.0,74,0.00,,,0.00,Weather View 32 v70,2013-07-04 07:49:00,
2013-07-04 03:54:00,63.0,54.2,30.10,South,180,0.0,2.0,73,0.00,,,0.00,Weather View 32 v70,2013-07-04 07:54:00,
2013-07-04 04:04:00,63.0,53.8,30.10,South,180,0.0,2.0,72,0.00,,,0.00,Weather View 32 v70,2013-07-04 08:04:00,
2013-07-04 04:09:00,63.0,54.2,30.10,South,180,0.0,2.0,73,0.00,,,0.00,Weather View 32 v70,2013-07-04 08:09:00,
2013-07-04 04:14:00,63.0,54.6,30.10,South,180,0.0,2.0,74,0.00,,,0.00,Weather View 32 v70,2013-07-04 08:14:00,
2013-07-04 04:19:00,63.0,54.6,30.09,South,180,0.0,2.0,74,0.00,,,0.00,Weather View 32 v70,2013-07-04 08:19:00,
2013-07-04 04:24:00,63.0,53.8,30.10,South,180,0.0,2.0,72,0.00,,,0.00,Weather View 32 v70,2013-07-04 08:24:00,
2013-07-04 04:34:00,63.0,54.2,30.10,South,180,0.0,2.0,73,0.00,,,0.00,Weather View 32 v70,2013-07-04 08:34:00,
2013-07-04 04:39:00,63.0,54.2,30.10,South,180,0.0,1.0,73,0.00,,,0.00,Weather View 32 v70,2013-07-04 08:39:00,
2013-07-04 04:44:00,63.0,54.2,30.10,South,180,0.0,0.0,73,0.00,,,0.00,Weather View 32 v70,2013-07-04 08:44:00,
2013-07-04 04:49:00,63.0,55.7,30.10,South,180,0.0,0.0,77,0.00,,,0.00,Weather View 32 v70,2013-07-04 08:49:00,
2013-07-04 04:54:00,63.0,56.0,30.09,South,180,0.0,0.0,78,0.00,,,0.00,Weather View 32 v70,2013-07-04 08:54:00,
2013-07-04 04:59:00,63.0,54.9,30.09,South,180,0.0,0.0,75,0.00,,,0.00,Weather View 32 v70,2013-07-04 08:59:00,
2013-07-04 05:09:00,63.0,53.8,30.09,South,180,0.0,0.0,72,0.00,,,0.00,Weather View 32 v70,2013-07-04 09:09:00,
2013-07-04 05:14:00,62.0,52.8,30.09,South,180,0.0,0.0,72,0.00,,,0.00,Weather View 32 v70,2013-07-04 09:14:00,
2013-07-04 05:19:00,62.0,53.2,30.09,South,180,0.0,0.0,73,0.00,,,0.00,Weather View 32 v70,2013-07-04 09:19:00,
2013-07-04 05:24:00,62.0,53.6,30.09,South,180,0.0,0.0,74,0.00,,,0.00,Weather View 32 v70,2013-07-04 09:24:00,
2013-07-04 05:29:00,62.0,53.2,30.09,South,180,0.0,0.0,73,0.00,,,0.00,Weather View 32 v70,2013-07-04 09:29:00,
2013-07-04 05:34:00,62.0,54.0,30.09,South,180,0.0,0.0,75,0.00,,,0.00,Weather View 32 v70,2013-07-04 09:34:00,
2013-07-04 05:44:00,62.0,53.6,30.09,South,180,0.0,2.0,74,0.00,,,0.00,Weather View 32 v70,2013-07-04 09:44:00,
2013-07-04 05:49:00,62.0,53.6,30.09,South,180,0.0,2.0,74,0.00,,,0.00,Weather View 32 v70,2013-07-04 09:49:00,
2013-07-04 05:59:00,62.0,53.6,30.10,South,180,0.0,2.0,74,0.00,,,0.00,Weather View 32 v70,2013-07-04 09:59:00,
2013-07-04 06:04:00,62.0,54.0,30.10,South,180,0.0,2.0,75,0.00,,,0.00,Weather View 32 v70,2013-07-04 10:04:00,
2013-07-04 06:09:00,62.0,55.7,30.10,South,180,0.0,2.0,80,0.00,,,0.00,Weather View 32 v70,2013-07-04 10:09:00,
2013-07-04 06:14:00,62.0,54.7,30.10,South,180,0.0,2.0,77,0.00,,,0.00,Weather View 32 v70,2013-07-04 10:14:00,
2013-07-04 06:24:00,62.0,54.3,30.10,South,180,0.0,2.0,76,0.00,,,0.00,Weather View 32 v70,2013-07-04 10:24:00,
2013-07-04 06:29:00,62.0,54.7,30.10,South,180,0.0,2.0,77,0.00,,,0.00,Weather View 32 v70,2013-07-04 10:29:00,
2013-07-04 06:34:00,62.0,54.7,30.10,South,180,0.0,2.0,77,0.00,,,0.00,Weather View 32 v70,2013-07-04 10:34:00,
2013-07-04 06:39:00,62.0,55.7,30.11,South,180,0.0,2.0,80,0.00,,,0.00,Weather View 32 v70,2013-07-04 10:39:00,
2013-07-04 06:44:00,62.0,56.4,30.11,South,180,0.0,1.0,82,0.00,,,0.00,Weather View 32 v70,2013-07-04 10:44:00,
2013-07-04 06:49:00,62.0,56.1,30.11,South,180,0.0,1.0,81,0.00,,,0.00,Weather View 32 v70,2013-07-04 10:49:00,
2013-07-04 06:54:00,62.0,55.7,30.11,South,180,0.0,1.0,80,0.00,,,0.00,Weather View 32 v70,2013-07-04 10:54:00,
2013-07-04 07:04:00,62.0,55.7,30.11,South,180,0.0,1.0,80,0.00,,,0.00,Weather View 32 v70,2013-07-04 11:04:00,
2013-07-04 07:09:00,62.0,55.7,30.11,South,180,0.0,1.0,80,0.00,,,0.00,Weather View 32 v70,2013-07-04 11:09:00,
2013-07-04 07:14:00,62.0,55.7,30.11,South,180,0.0,1.0,80,0.00,,,0.00,Weather View 32 v70,2013-07-04 11:14:00,
2013-07-04 07:19:00,62.0,55.4,30.11,South,180,0.0,0.0,79,0.00,,,0.00,Weather View 32 v70,2013-07-04 11:19:00,
2013-07-04 07:24:00,63.0,56.4,30.11,South,180,0.0,0.0,79,0.00,,,0.00,Weather View 32 v70,2013-07-04 11:24:00,
2013-07-04 07:29:00,63.0,56.4,30.11,South,180,0.0,0.0,79,0.00,,,0.00,Weather View 32 v70,2013-07-04 11:29:00,
2013-07-04 07:39:00,63.0,56.4,30.12,South,180,0.0,0.0,79,0.00,,,0.00,Weather View 32 v70,2013-07-04 11:39:00,
2013-07-04 07:44:00,63.0,56.4,30.12,South,180,0.0,0.0,79,0.00,,,0.00,Weather View 32 v70,2013-07-04 11:44:00,
2013-07-04 07:49:00,64.0,57.3,30.12,South,180,0.0,0.0,79,0.00,,,0.00,Weather View 32 v70,2013-07-04 11:49:00,
2013-07-04 07:54:00,64.0,57.3,30.12,South,180,0.0,0.0,79,0.00,,,0.00,Weather View 32 v70,2013-07-04 11:54:00,
2013-07-04 08:04:00,64.0,57.3,30.12,South,180,0.0,1.0,79,0.00,,,0.00,Weather View 32 v70,2013-07-04 12:04:00,
2013-07-04 08:09:00,64.0,57.3,30.12,South,180,0.0,1.0,79,0.00,,,0.00,Weather View 32 v70,2013-07-04 12:09:00,
2013-07-04 08:14:00,65.0,58.3,30.13,South,180,0.0,1.0,79,0.00,,,0.00,Weather View 32 v70,2013-07-04 12:14:00,
2013-07-04 08:19:00,65.0,57.6,30.13,South,180,0.0,2.0,77,0.00,,,0.00,Weather View 32 v70,2013-07-04 12:19:00,
2013-07-04 08:25:00,65.0,57.6,30.12,South,180,0.0,2.0,77,0.00,,,0.00,Weather View 32 v70,2013-07-04 12:25:00,
2013-07-04 08:34:00,66.0,58.9,30.13,East,90,1.0,4.0,78,0.00,,,0.00,Weather View 32 v70,2013-07-04 12:34:00,
2013-07-04 08:39:00,66.0,58.9,30.13,East,90,0.0,4.0,78,0.00,,,0.00,Weather View 32 v70,2013-07-04 12:39:00,
2013-07-04 08:44:00,66.0,58.9,30.13,East,90,1.0,4.0,78,0.00,,,0.00,Weather View 32 v70,2013-07-04 12:44:00,
2013-07-04 08:54:00,67.0,59.5,30.13,East,90,1.0,4.0,77,0.00,,,0.00,Weather View 32 v70,2013-07-04 12:54:00,
2013-07-04 08:59:00,67.0,59.5,30.13,East,90,1.0,4.0,77,0.00,,,0.00,Weather View 32 v70,2013-07-04 12:59:00,
2013-07-04 09:04:00,67.0,59.5,30.13,East,90,0.0,4.0,77,0.00,,,0.00,Weather View 32 v70,2013-07-04 13:04:00,
2013-07-04 09:14:00,68.0,60.1,30.14,East,90,2.0,4.0,76,0.00,,,0.00,Weather View 32 v70,2013-07-04 13:14:00,
2013-07-04 09:19:00,68.0,60.5,30.13,East,90,0.0,4.0,77,0.00,,,0.00,Weather View 32 v70,2013-07-04 13:19:00,
2013-07-04 09:25:00,68.0,60.1,30.14,East,90,1.0,4.0,76,0.00,,,0.00,Weather View 32 v70,2013-07-04 13:25:00,
2013-07-04 09:34:00,69.0,61.5,30.14,East,90,3.0,4.0,77,0.00,,,0.00,Weather View 32 v70,2013-07-04 13:34:00,
2013-07-04 09:44:00,69.0,60.7,30.14,SE,135,4.0,6.0,75,0.00,,,0.00,Weather View 32 v70,2013-07-04 13:44:00,
2013-07-04 09:49:00,69.0,60.7,30.15,SSE,157,3.0,6.0,75,0.00,,,0.00,Weather View 32 v70,2013-07-04 13:49:00,
2013-07-04 09:59:00,70.0,62.1,30.15,SE,135,1.0,6.0,76,0.00,,,0.00,Weather View 32 v70,2013-07-04 13:59:00,
2013-07-04 10:09:00,70.0,60.9,30.15,SE,135,1.0,6.0,73,0.00,,,0.00,Weather View 32 v70,2013-07-04 14:09:00,
2013-07-04 10:19:00,70.0,58.9,30.14,SE,135,4.0,6.0,68,0.00,,,0.00,Weather View 32 v70,2013-07-04 14:19:00,
2013-07-04 10:26:00,71.0,59.9,30.14,East,90,3.0,6.0,68,0.00,,,0.00,Weather View 32 v70,2013-07-04 14:26:00,
2013-07-04 10:34:00,71.0,59.9,30.15,South,180,6.0,6.0,68,0.00,,,0.00,Weather View 32 v70,2013-07-04 14:34:00,
2013-07-04 10:39:00,72.0,61.2,30.15,NE,45,1.0,8.0,69,0.00,,,0.00,Weather View 32 v70,2013-07-04 14:39:00,
2013-07-04 10:44:00,72.0,61.2,30.15,East,90,2.0,8.0,69,0.00,,,0.00,Weather View 32 v70,2013-07-04 14:44:00,
2013-07-04 10:49:00,72.0,62.4,30.15,SE,135,1.0,8.0,72,0.00,,,0.00,Weather View 32 v70,2013-07-04 14:49:00,
2013-07-04 10:59:00,73.0,65.0,30.15,ENE,67,2.0,8.0,76,0.00,,,0.00,Weather View 32 v70,2013-07-04 14:59:00,
2013-07-04 11:04:00,73.0,66.1,30.15,ESE,112,0.0,8.0,79,0.00,,,0.00,Weather View 32 v70,2013-07-04 15:04:00,
2013-07-04 11:09:00,74.0,67.4,30.15,SE,135,1.0,8.0,80,0.00,,,0.00,Weather View 32 v70,2013-07-04 15:09:00,
2013-07-04 11:19:00,74.0,68.8,30.16,SE,135,0.0,8.0,84,0.00,,,0.00,Weather View 32 v70,2013-07-04 15:19:00,
2013-07-04 11:26:00,75.0,70.2,30.16,ESE,112,0.0,8.0,85,0.00,,,0.00,Weather View 32 v70,2013-07-04 15:26:00,
2013-07-04 11:34:00,75.0,71.5,30.16,ESE,112,1.0,8.0,89,0.00,,,0.00,Weather View 32 v70,2013-07-04 15:34:00,
2013-07-04 11:44:00,74.0,70.5,30.16,SE,135,2.0,6.0,89,0.00,,,0.00,Weather View 32 v70,2013-07-04 15:44:00,
2013-07-04 11:49:00,74.0,70.5,30.17,NE,45,3.0,5.0,89,0.00,,,0.00,Weather View 32 v70,2013-07-04 15:49:00,
2013-07-04 11:54:00,74.0,69.9,30.16,ESE,112,2.0,5.0,87,0.00,,,0.00,Weather View 32 v70,2013-07-04 15:54:00,
2013-07-04 12:04:00,75.0,71.2,30.16,ESE,112,0.0,5.0,88,0.00,,,0.00,Weather View 32 v70,2013-07-04 16:04:00,
2013-07-04 12:09:00,75.0,71.5,30.17,ESE,112,1.0,5.0,89,0.00,,,0.00,Weather View 32 v70,2013-07-04 16:09:00,
2013-07-04 12:19:00,75.0,71.5,30.17,SE,135,0.0,5.0,89,0.00,,,0.00,Weather View 32 v70,2013-07-04 16:19:00,
2013-07-04 12:24:00,75.0,71.5,30.17,SE,135,1.0,5.0,89,0.00,,,0.00,Weather View 32 v70,2013-07-04 16:24:00,
2013-07-04 12:34:00,75.0,71.9,30.17,SE,135,1.0,5.0,90,0.00,,,0.00,Weather View 32 v70,2013-07-04 16:34:00,
2013-07-04 12:39:00,75.0,71.5,30.16,SE,135,2.0,5.0,89,0.00,,,0.00,Weather View 32 v70,2013-07-04 16:39:00,
2013-07-04 12:49:00,75.0,71.9,30.16,NE,45,1.0,5.0,90,0.00,,,0.00,Weather View 32 v70,2013-07-04 16:49:00,
2013-07-04 12:54:00,75.0,72.2,30.16,NNE,22,2.0,5.0,91,0.00,,,0.00,Weather View 32 v70,2013-07-04 16:54:00,
2013-07-04 12:59:00,75.0,72.2,30.16,SE,135,2.0,6.0,91,0.00,,,0.00,Weather View 32 v70,2013-07-04 16:59:00,
2013-07-04 13:09:00,75.0,72.2,30.16,SE,135,3.0,6.0,91,0.00,,,0.00,Weather View 32 v70,2013-07-04 17:09:00,
2013-07-04 13:14:00,75.0,72.2,30.16,SE,135,5.0,6.0,91,0.00,,,0.00,Weather View 32 v70,2013-07-04 17:14:00,
2013-07-04 13:24:00,75.0,72.2,30.16,NE,45,1.0,6.0,91,0.00,,,0.00,Weather View 32 v70,2013-07-04 17:24:00,
2013-07-04 13:34:00,75.0,72.2,30.15,NE,45,2.0,7.0,91,0.00,,,0.00,Weather View 32 v70,2013-07-04 17:34:00,
2013-07-04 13:39:00,75.0,72.2,30.15,ENE,67,6.0,7.0,91,0.00,,,0.00,Weather View 32 v70,2013-07-04 17:39:00,
2013-07-04 13:44:00,75.0,72.2,30.15,ENE,67,4.0,7.0,91,0.00,,,0.00,Weather View 32 v70,2013-07-04 17:44:00,
2013-07-04 13:55:00,75.0,72.2,30.15,ESE,112,4.0,7.0,91,0.00,,,0.00,Weather View 32 v70,2013-07-04 17:55:00,
2013-07-04 14:04:00,75.0,72.2,30.15,ENE,67,5.0,7.0,91,0.00,,,0.00,Weather View 32 v70,2013-07-04 18:04:00,
2013-07-04 14:14:00,74.0,71.2,30.15,SE,135,2.0,7.0,91,0.00,,,0.00,Weather View 32 v70,2013-07-04 18:14:00,
2013-07-04 14:19:00,74.0,71.2,30.14,SE,135,1.0,7.0,91,0.00,,,0.00,Weather View 32 v70,2013-07-04 18:19:00,
2013-07-04 14:28:00,74.0,70.9,30.15,East,90,3.0,7.0,90,0.00,,,0.00,Weather View 32 v70,2013-07-04 18:28:00,
2013-07-04 14:34:00,74.0,70.9,30.15,NE,45,4.0,8.0,90,0.00,,,0.00,Weather View 32 v70,2013-07-04 18:34:00,
2013-07-04 14:39:00,74.0,70.5,30.14,NE,45,7.0,8.0,89,0.00,,,0.00,Weather View 32 v70,2013-07-04 18:39:00,
2013-07-04 14:49:00,74.0,70.9,30.14,NE,45,2.0,8.0,90,0.00,,,0.00,Weather View 32 v70,2013-07-04 18:49:00,
2013-07-04 14:59:00,74.0,70.5,30.14,SE,135,2.0,8.0,89,0.00,,,0.00,Weather View 32 v70,2013-07-04 18:59:00,
2013-07-04 15:04:00,74.0,70.9,30.14,SE,135,4.0,8.0,90,0.00,,,0.00,Weather View 32 v70,2013-07-04 19:04:00,
2013-07-04 15:14:00,74.0,70.9,30.14,SE,135,2.0,8.0,90,0.00,,,0.00,Weather View 32 v70,2013-07-04 19:14:00,
2013-07-04 15:19:00,74.0,71.2,30.14,East,90,6.0,9.0,91,0.00,,,0.00,Weather View 32 v70,2013-07-04 19:19:00,
2013-07-04 15:29:00,74.0,71.2,30.14,East,90,4.0,9.0,91,0.00,,,0.00,Weather View 32 v70,2013-07-04 19:29:00,
2013-07-04 15:34:00,74.0,71.5,30.13,ESE,112,3.0,9.0,92,0.00,,,0.00,Weather View 32 v70,2013-07-04 19:34:00,
2013-07-04 15:39:00,75.0,72.5,30.13,SE,135,5.0,9.0,92,0.00,,,0.00,Weather View 32 v70,2013-07-04 19:39:00,
2013-07-04 15:44:00,74.0,71.5,30.13,NE,45,3.0,9.0,92,0.00,,,0.00,Weather View 32 v70,2013-07-04 19:44:00,
2013-07-04 15:49:00,74.0,71.5,30.12,South,180,1.0,9.0,92,0.00,,,0.00,Weather View 32 v70,2013-07-04 19:49:00,
2013-07-04 15:59:00,75.0,72.5,30.12,East,90,4.0,9.0,92,0.00,,,0.00,Weather View 32 v70,2013-07-04 19:59:00,
2013-07-04 16:04:00,74.0,71.5,30.12,ESE,112,2.0,9.0,92,0.00,,,0.00,Weather View 32 v70,2013-07-04 20:04:00,
2013-07-04 16:14:00,74.0,71.5,30.12,ENE,67,3.0,9.0,92,0.00,,,0.00,Weather View 32 v70,2013-07-04 20:14:00,
2013-07-04 16:19:00,74.0,71.5,30.12,NE,45,6.0,9.0,92,0.00,,,0.00,Weather View 32 v70,2013-07-04 20:19:00,
2013-07-04 16:29:00,74.0,71.5,30.12,NE,45,4.0,9.0,92,0.00,,,0.00,Weather View 32 v70,2013-07-04 20:29:00,
2013-07-04 16:34:00,74.0,71.5,30.12,ESE,112,1.0,9.0,92,0.00,,,0.00,Weather View 32 v70,2013-07-04 20:34:00,
2013-07-04 16:39:00,74.0,71.5,30.12,East,90,3.0,9.0,92,0.00,,,0.00,Weather View 32 v70,2013-07-04 20:39:00,
2013-07-04 16:44:00,74.0,71.5,30.11,SE,135,3.0,9.0,92,0.00,,,0.00,Weather View 32 v70,2013-07-04 20:44:00,
2013-07-04 16:54:00,73.0,70.5,30.12,East,90,5.0,9.0,92,0.00,,,0.00,Weather View 32 v70,2013-07-04 20:54:00,
2013-07-04 16:59:00,73.0,70.5,30.12,East,90,5.0,9.0,92,0.00,,,0.00,Weather View 32 v70,2013-07-04 20:59:00,
2013-07-04 17:09:00,74.0,71.5,30.12,SE,135,1.0,10.0,92,0.00,,,0.00,Weather View 32 v70,2013-07-04 21:09:00,
2013-07-04 17:14:00,74.0,71.5,30.11,NE,45,4.0,10.0,92,0.00,,,0.00,Weather View 32 v70,2013-07-04 21:14:00,
2013-07-04 17:24:00,74.0,71.2,30.12,East,90,7.0,10.0,91,0.00,,,0.00,Weather View 32 v70,2013-07-04 21:24:00,
2013-07-04 17:30:00,74.0,71.5,30.12,SE,135,5.0,10.0,92,0.00,,,0.00,Weather View 32 v70,2013-07-04 21:30:00,
2013-07-04 17:39:00,74.0,71.2,30.12,NNE,22,0.0,10.0,91,0.00,,,0.00,Weather View 32 v70,2013-07-04 21:39:00,
2013-07-04 17:44:00,74.0,71.5,30.12,ENE,67,6.0,10.0,92,0.00,,,0.00,Weather View 32 v70,2013-07-04 21:44:00,
2013-07-04 17:49:00,74.0,71.2,30.11,ESE,112,1.0,10.0,91,0.00,,,0.00,Weather View 32 v70,2013-07-04 21:49:00,
2013-07-04 17:54:00,73.0,70.2,30.11,SE,135,3.0,10.0,91,0.00,,,0.00,Weather View 32 v70,2013-07-04 21:54:00,
2013-07-04 18:04:00,73.0,70.2,30.11,SE,135,3.0,9.0,91,0.00,,,0.00,Weather View 32 v70,2013-07-04 22:04:00,
2013-07-04 18:09:00,73.0,70.2,30.10,ESE,112,2.0,9.0,91,0.00,,,0.00,Weather View 32 v70,2013-07-04 22:09:00,
2013-07-04 18:14:00,73.0,70.2,30.10,ESE,112,3.0,9.0,91,0.00,,,0.00,Weather View 32 v70,2013-07-04 22:14:00,
2013-07-04 18:24:00,73.0,69.9,30.10,SE,135,0.0,9.0,90,0.00,,,0.00,Weather View 32 v70,2013-07-04 22:24:00,
2013-07-04 18:29:00,73.0,69.9,30.10,SE,135,2.0,9.0,90,0.00,,,0.00,Weather View 32 v70,2013-07-04 22:29:00,
2013-07-04 18:34:00,73.0,69.9,30.10,South,180,2.0,9.0,90,0.00,,,0.00,Weather View 32 v70,2013-07-04 22:34:00,
2013-07-04 18:39:00,73.0,69.9,30.09,SE,135,1.0,9.0,90,0.00,,,0.00,Weather View 32 v70,2013-07-04 22:39:00,
2013-07-04 18:49:00,73.0,69.6,30.09,South,180,2.0,8.0,89,0.00,,,0.00,Weather View 32 v70,2013-07-04 22:49:00,
2013-07-04 18:54:00,73.0,69.6,30.09,East,90,2.0,8.0,89,0.00,,,0.00,Weather View 32 v70,2013-07-04 22:54:00,
2013-07-04 18:59:00,73.0,69.6,30.09,SE,135,1.0,8.0,89,0.00,,,0.00,Weather View 32 v70,2013-07-04 22:59:00,
2013-07-04 19:04:00,72.0,68.6,30.09,ESE,112,4.0,8.0,89,0.00,,,0.00,Weather View 32 v70,2013-07-04 23:04:00,
2013-07-04 19:14:00,72.0,68.2,30.09,ESE,112,1.0,7.0,88,0.00,,,0.00,Weather View 32 v70,2013-07-04 23:14:00,
2013-07-04 19:19:00,72.0,68.2,30.10,SE,135,0.0,7.0,88,0.00,,,0.00,Weather View 32 v70,2013-07-04 23:19:00,
2013-07-04 19:24:00,72.0,68.2,30.11,SE,135,3.0,7.0,88,0.00,,,0.00,Weather View 32 v70,2013-07-04 23:24:00,
2013-07-04 19:29:00,72.0,67.9,30.10,SW,225,1.0,7.0,87,0.00,,,0.00,Weather View 32 v70,2013-07-04 23:29:00,
2013-07-04 19:39:00,72.0,68.2,30.11,SE,135,0.0,7.0,88,0.00,,,0.00,Weather View 32 v70,2013-07-04 23:39:00,
2013-07-04 19:44:00,72.0,67.9,30.11,SE,135,3.0,7.0,87,0.00,,,0.00,Weather View 32 v70,2013-07-04 23:44:00,
2013-07-04 19:49:00,72.0,67.9,30.11,SSE,157,3.0,7.0,87,0.00,,,0.00,Weather View 32 v70,2013-07-04 23:49:00,
2013-07-04 19:54:00,72.0,67.9,30.12,NE,45,2.0,7.0,87,0.00,,,0.00,Weather View 32 v70,2013-07-04 23:54:00,
2013-07-04 20:04:00,72.0,67.6,30.10,ESE,112,0.0,7.0,86,0.00,,,0.00,Weather View 32 v70,2013-07-05 00:04:00,
2013-07-04 20:09:00,72.0,67.6,30.11,SE,135,0.0,7.0,86,0.00,,,0.00,Weather View 32 v70,2013-07-05 00:09:00,
2013-07-04 20:19:00,71.0,66.6,30.11,ESE,112,3.0,7.0,86,0.00,,,0.00,Weather View 32 v70,2013-07-05 00:19:00,
2013-07-04 20:24:00,71.0,65.9,30.10,SE,135,3.0,7.0,84,0.00,,,0.00,Weather View 32 v70,2013-07-05 00:24:00,
2013-07-04 20:29:00,71.0,66.2,30.11,ESE,112,2.0,7.0,85,0.00,,,0.00,Weather View 32 v70,2013-07-05 00:29:00,
2013-07-04 20:39:00,71.0,65.9,30.10,ESE,112,1.0,7.0,84,0.00,,,0.00,Weather View 32 v70,2013-07-05 00:39:00,
2013-07-04 20:44:00,71.0,65.9,30.11,SE,135,1.0,7.0,84,0.00,,,0.00,Weather View 32 v70,2013-07-05 00:44:00,
2013-07-04 20:49:00,71.0,65.9,30.10,ESE,112,1.0,7.0,84,0.00,,,0.00,Weather View 32 v70,2013-07-05 00:49:00,
2013-07-04 20:54:00,71.0,65.2,30.09,SE,135,0.0,7.0,82,0.00,,,0.00,Weather View 32 v70,2013-07-05 00:54:00,
2013-07-04 20:59:00,71.0,65.2,30.10,East,90,0.0,6.0,82,0.00,,,0.00,Weather View 32 v70,2013-07-05 00:59:00,
2013-07-04 21:04:00,70.0,64.2,30.10,East,90,0.0,6.0,82,0.00,,,0.00,Weather View 32 v70,2013-07-05 01:04:00,
2013-07-04 21:14:00,70.0,64.2,30.10,SE,135,1.0,6.0,82,0.00,,,0.00,Weather View 32 v70,2013-07-05 01:14:00,
2013-07-04 21:19:00,70.0,63.5,30.09,ESE,112,3.0,6.0,80,0.00,,,0.00,Weather View 32 v70,2013-07-05 01:19:00,
2013-07-04 21:24:00,70.0,63.2,30.09,East,90,0.0,4.0,79,0.00,,,0.00,Weather View 32 v70,2013-07-05 01:24:00,
2013-07-04 21:29:00,70.0,62.8,30.08,NE,45,2.0,5.0,78,0.00,,,0.00,Weather View 32 v70,2013-07-05 01:29:00,
2013-07-04 21:34:00,70.0,62.8,30.08,SE,135,0.0,5.0,78,0.00,,,0.00,Weather View 32 v70,2013-07-05 01:34:00,
2013-07-04 21:44:00,70.0,62.8,30.09,SE,135,0.0,5.0,78,0.00,,,0.00,Weather View 32 v70,2013-07-05 01:44:00,
2013-07-04 21:49:00,70.0,62.4,30.09,SE,135,0.0,5.0,77,0.00,,,0.00,Weather View 32 v70,2013-07-05 01:49:00,
2013-07-04 21:54:00,69.0,61.8,30.09,SE,135,1.0,5.0,78,0.00,,,0.00,Weather View 32 v70,2013-07-05 01:54:00,
2013-07-04 21:59:00,69.0,61.1,30.09,SE,135,2.0,5.0,76,0.00,,,0.00,Weather View 32 v70,2013-07-05 01:59:00,
2013-07-04 22:04:00,69.0,61.1,30.09,SE,135,2.0,5.0,76,0.00,,,0.00,Weather View 32 v70,2013-07-05 02:04:00,
2013-07-04 22:14:00,69.0,60.7,30.09,SE,135,1.0,5.0,75,0.00,,,0.00,Weather View 32 v70,2013-07-05 02:14:00,
2013-07-04 22:19:00,69.0,60.3,30.09,SE,135,1.0,5.0,74,0.00,,,0.00,Weather View 32 v70,2013-07-05 02:19:00,
2013-07-04 22:24:00,69.0,60.0,30.09,SE,135,0.0,5.0,73,0.00,,,0.00,Weather View 32 v70,2013-07-05 02:24:00,
2013-07-04 22:29:00,69.0,60.0,30.09,SE,135,0.0,5.0,73,0.00,,,0.00,Weather View 32 v70,2013-07-05 02:29:00,
2013-07-04 22:39:00,69.0,60.0,30.10,SE,135,0.0,5.0,73,0.00,,,0.00,Weather View 32 v70,2013-07-05 02:39:00,
2013-07-04 22:44:00,69.0,60.0,30.10,SE,135,0.0,5.0,73,0.00,,,0.00,Weather View 32 v70,2013-07-05 02:44:00,
2013-07-04 22:49:00,69.0,60.0,30.10,SE,135,0.0,5.0,73,0.00,,,0.00,Weather View 32 v70,2013-07-05 02:49:00,
2013-07-04 22:54:00,68.0,59.0,30.11,SE,135,0.0,5.0,73,0.00,,,0.00,Weather View 32 v70,2013-07-05 02:54:00,
2013-07-04 23:04:00,68.0,59.0,30.11,SE,135,0.0,5.0,73,0.00,,,0.00,Weather View 32 v70,2013-07-05 03:04:00,
2013-07-04 23:09:00,68.0,58.6,30.11,SE,135,0.0,3.0,72,0.00,,,0.00,Weather View 32 v70,2013-07-05 03:09:00,
2013-07-04 23:14:00,68.0,58.6,30.10,SE,135,0.0,3.0,72,0.00,,,0.00,Weather View 32 v70,2013-07-05 03:14:00,
2013-07-04 23:19:00,68.0,58.6,30.11,SE,135,0.0,3.0,72,0.00,,,0.00,Weather View 32 v70,2013-07-05 03:19:00,
2013-07-04 23:29:00,68.0,58.2,30.11,SE,135,0.0,3.0,71,0.00,,,0.00,Weather View 32 v70,2013-07-05 03:29:00,
2013-07-04 23:34:00,68.0,57.8,30.10,SE,135,0.0,3.0,70,0.00,,,0.00,Weather View 32 v70,2013-07-05 03:34:00,
2013-07-04 23:39:00,68.0,57.8,30.11,SE,135,0.0,3.0,70,0.00,,,0.00,Weather View 32 v70,2013-07-05 03:39:00,
2013-07-04 23:44:00,68.0,57.8,30.11,SE,135,0.0,3.0,70,0.00,,,0.00,Weather View 32 v70,2013-07-05 03:44:00,
2013-07-04 23:54:00,68.0,57.8,30.12,SE,135,3.0,3.0,70,0.00,,,0.00,Weather View 32 v70,2013-07-05 03:54:00,
2013-07-04 23:59:00,68.0,57.8,30.12,East,90,2.0,4.0,70,0.00,,,0.00,Weather View 32 v70,2013-07-05 03:59:00,